DW3267 Weather Reports


Display with metric or nautical units.
time (UTC)temp
F
wind
direction
speed
MPH
gust
MPH
rain 1hr
in
rain 24hr
in
rain mn
in
humidity
%
barometer
mb
20260502152256 55 143 2.0 10.0 0.00 0.00 0.00 28 1018.1
20260502152056 55 119 2.0 10.0 0.00 0.00 0.00 27 1018.2
20260502151957 55 158 3.0 10.0 0.00 0.00 0.00 29 1018.2
20260502151856 55 140 8.0 8.0 0.00 0.00 0.00 28 1018.2
20260502151756 55 107 1.0 9.0 0.00 0.00 0.00 30 1018.2
20260502151556 55 61 4.0 9.0 0.00 0.00 0.00 29 1018.2
20260502151457 55 131 4.0 9.0 0.00 0.00 0.00 29 1018.2
20260502151356 55 87 1.0 9.0 0.00 0.00 0.00 27 1018.2
20260502151256 55 140 1.0 9.0 0.00 0.00 0.00 28 1018.2
20260502151157 55 76 2.0 9.0 0.00 0.00 0.00 27 1018.2
20260502151057 55 105 4.0 9.0 0.00 0.00 0.00 28 1018.2
20260502150957 55 153 4.0 9.0 0.00 0.00 0.00 30 1018.2
20260502150856 55 162 0.0 4.0 0.00 0.00 0.00 31 1018.2
20260502150756 55 201 1.0 4.0 0.00 0.00 0.00 30 1018.2
20260502150556 54 216 1.0 3.0 0.00 0.00 0.00 34 1018.2
20260502150357 54 271 1.0 2.0 0.00 0.00 0.00 35 1018.1
20260502150257 54 271 1.0 2.0 0.00 0.00 0.00 36 1018.1
20260502150156 54 290 1.0 2.0 0.00 0.00 0.00 37 1018.1
20260502130658 48 165 0.0 3.0 0.00 0.00 0.00 32 1017.8
20260502130556 48 165 0.0 3.0 0.00 0.00 0.00 32 1017.8
20260502130457 48 165 0.0 3.0 0.00 0.00 0.00 32 1017.7
20260502130356 48 165 0.0 4.0 0.00 0.00 0.00 33 1017.8
20260502130256 48 165 1.0 4.0 0.00 0.00 0.00 34 1017.8
20260502130157 48 177 1.0 4.0 0.00 0.00 0.00 32 1017.7
20260502123757 46 152 1.0 5.0 0.00 0.00 0.00 35 1017.4
20260502123656 46 152 0.0 5.0 0.00 0.00 0.00 35 1017.4
20260502123457 46 152 1.0 5.0 0.00 0.00 0.00 37 1017.4
20260502123258 46 185 1.0 5.0 0.00 0.00 0.00 36 1017.4
20260502123056 46 182 0.0 5.0 0.00 0.00 0.00 37 1017.4
20260502122957 46 209 4.0 5.0 0.00 0.00 0.00 35 1017.4
20260502122856 46 223 2.0 4.0 0.00 0.00 0.00 37 1017.4
20260502122756 46 225 2.0 4.0 0.00 0.00 0.00 37 1017.4
20260502122656 46 178 2.0 4.0 0.00 0.00 0.00 35 1017.4
20260502122556 46 319 1.0 3.0 0.00 0.00 0.00 36 1017.4
20260502122457 46 319 1.0 3.0 0.00 0.00 0.00 36 1017.4
20260502122356 46 319 1.0 3.0 0.00 0.00 0.00 35 1017.4
20260502122257 46 15 2.0 5.0 0.00 0.00 0.00 35 1017.4
20260502122155 46 17 1.0 5.0 0.00 0.00 0.00 36 1017.4
20260502122057 46 234 2.0 5.0 0.00 0.00 0.00 38 1017.3
20260502121957 46 238 2.0 5.0 0.00 0.00 0.00 36 1017.4
20260502121856 46 231 0.0 5.0 0.00 0.00 0.00 36 1017.4
20260502121757 46 243 3.0 5.0 0.00 0.00 0.00 38 1017.4
20260502121656 46 174 0.0 5.0 0.00 0.00 0.00 38 1017.4
20260502121557 46 173 1.0 5.0 0.00 0.00 0.00 37 1017.4
20260502121457 46 85 3.0 5.0 0.00 0.00 0.00 39 1017.4
20260502121256 46 42 1.0 3.0 0.00 0.00 0.00 34 1017.4
20260502121155 46 42 0.0 3.0 0.00 0.00 0.00 36 1017.4
20260502121058 45 37 1.0 3.0 0.00 0.00 0.00 37 1017.4
20260502120957 45 133 1.0 3.0 0.00 0.00 0.00 36 1017.4
20260502120756 45 132 0.0 3.0 0.00 0.00 0.00 36 1017.3
20260502120557 45 297 1.0 3.0 0.00 0.00 0.00 35 1017.4
20260502120457 45 345 2.0 3.0 0.00 0.00 0.00 36 1017.4
20260502120357 45 344 1.0 3.0 0.00 0.00 0.00 35 1017.4
20260502120257 45 244 0.0 3.0 0.00 0.00 0.00 37 1017.4
20260502120156 45 228 3.0 3.0 0.00 0.00 0.00 37 1017.4
20260502115757 45 97 0.0 2.0 0.00 0.00 0.00 35 1017.4
20260502115656 45 97 0.0 2.0 0.00 0.00 0.00 35 1017.4
20260502115457 45 97 1.0 2.0 0.00 0.00 0.00 36 1017.4
20260502115357 45 97 0.0 2.0 0.00 0.00 0.00 37 1017.4
20260502115256 45 97 0.0 2.0 0.00 0.00 0.00 37 1017.4
20260502115056 45 96 0.0 2.0 0.00 0.00 0.00 35 1017.4
20260502114956 45 96 1.0 2.0 0.00 0.00 0.00 36 1017.4
20260502114857 45 107 1.0 2.0 0.00 0.00 0.00 37 1017.4
20260502114657 45 107 1.0 2.0 0.00 0.00 0.00 36 1017.4
20260502114456 45 107 0.0 2.0 0.00 0.00 0.00 37 1017.4
20260502114356 45 107 0.0 2.0 0.00 0.00 0.00 37 1017.4
20260502113957 45 108 2.0 2.0 0.00 0.00 0.00 37 1017.4
20260502113857 45 109 1.0 2.0 0.00 0.00 0.00 38 1017.4
20260502113757 45 161 1.0 2.0 0.00 0.00 0.00 38 1017.4
20260502113655 45 161 0.0 2.0 0.00 0.00 0.00 40 1017.4
20260502113556 45 161 1.0 2.0 0.00 0.00 0.00 39 1017.4
20260502113458 45 74 1.0 2.0 0.00 0.00 0.00 35 1017.4
20260502113357 45 42 1.0 2.0 0.00 0.00 0.00 37 1017.4
20260502113256 45 56 2.0 2.0 0.00 0.00 0.00 37 1017.4
20260502113157 45 57 1.0 2.0 0.00 0.00 0.00 39 1017.5
20260502113056 45 57 1.0 3.0 0.00 0.00 0.00 37 1017.4
20260502112958 45 59 1.0 5.0 0.00 0.00 0.00 38 1017.5
20260502112856 45 59 0.0 5.0 0.00 0.00 0.00 38 1017.5
20260502112758 45 59 2.0 5.0 0.00 0.00 0.00 37 1017.5
20260502112457 45 37 0.0 5.0 0.00 0.00 0.00 37 1017.5
20260502112357 45 60 2.0 5.0 0.00 0.00 0.00 36 1017.5
20260502112257 45 142 2.0 5.0 0.00 0.00 0.00 37 1017.5
20260502112156 45 169 2.0 5.0 0.00 0.00 0.00 38 1017.5
20260502112056 45 178 3.0 5.0 0.00 0.00 0.00 38 1017.6
20260502111956 45 155 4.0 4.0 0.00 0.00 0.00 38 1017.5
20260502111857 46 158 1.0 3.0 0.00 0.00 0.00 38 1017.5
20260502111756 46 161 1.0 3.0 0.00 0.00 0.00 38 1017.6
20260502111656 46 140 2.0 3.0 0.00 0.00 0.00 37 1017.5
20260502111557 46 130 0.0 3.0 0.00 0.00 0.00 36 1017.5
20260502111457 46 130 0.0 3.0 0.00 0.00 0.00 37 1017.6
20260502111356 46 130 1.0 3.0 0.00 0.00 0.00 37 1017.6
20260502111256 46 132 1.0 3.0 0.00 0.00 0.00 37 1017.5
20260502111156 46 135 0.0 3.0 0.00 0.00 0.00 37 1017.6
20260502111056 46 128 0.0 3.0 0.00 0.00 0.00 36 1017.6
20260502110956 46 111 1.0 3.0 0.00 0.00 0.00 36 1017.5
20260502110857 46 89 1.0 3.0 0.00 0.00 0.00 36 1017.6
20260502110757 46 89 3.0 3.0 0.00 0.00 0.00 36 1017.6
20260502110656 46 111 1.0 2.0 0.00 0.00 0.00 36 1017.6
20260502110557 46 165 0.0 2.0 0.00 0.00 0.00 36 1017.6
20260502110457 46 165 1.0 2.0 0.00 0.00 0.00 37 1017.6
20260502110356 46 165 1.0 2.0 0.00 0.00 0.00 37 1017.6
20260502110257 46 186 1.0 2.0 0.00 0.00 0.00 37 1017.6
20260502110057 46 280 0.0 2.0 0.00 0.00 0.00 37 1017.6
20260502105856 46 242 1.0 2.0 0.00 0.00 0.00 38 1017.6
20260502105756 46 242 1.0 2.0 0.00 0.00 0.00 39 1017.6
20260502105656 46 248 2.0 2.0 0.00 0.00 0.00 36 1017.6
20260502105556 46 248 0.0 1.0 0.00 0.00 0.00 36 1017.6
20260502105356 46 248 1.0 1.0 0.00 0.00 0.00 37 1017.6
20260502105257 46 248 0.0 1.0 0.00 0.00 0.00 35 1017.5
20260502105156 46 248 0.0 1.0 0.00 0.00 0.00 35 1017.5
20260502104656 46 248 1.0 1.0 0.00 0.00 0.00 36 1017.5
20260502104556 46 248 0.0 2.0 0.00 0.00 0.00 37 1017.5
20260502104458 46 250 0.0 3.0 0.00 0.00 0.00 36 1017.5
20260502104158 46 250 1.0 3.0 0.00 0.00 0.00 36 1017.5
20260502104056 46 250 0.0 3.0 0.00 0.00 0.00 36 1017.5
20260502103957 46 250 1.0 3.0 0.00 0.00 0.00 37 1017.5
20260502103757 46 248 1.0 3.0 0.00 0.00 0.00 38 1017.5
20260502103657 46 248 1.0 3.0 0.00 0.00 0.00 39 1017.4
20260502103556 46 247 2.0 3.0 0.00 0.00 0.00 38 1017.4
20260502103456 46 257 1.0 3.0 0.00 0.00 0.00 38 1017.4
20260502103356 46 276 2.0 3.0 0.00 0.00 0.00 37 1017.4
20260502103256 46 252 2.0 3.0 0.00 0.00 0.00 39 1017.4
20260502103156 46 252 2.0 3.0 0.00 0.00 0.00 39 1017.4
20260502103057 46 226 1.0 2.0 0.00 0.00 0.00 38 1017.4
20260502102957 46 236 1.0 2.0 0.00 0.00 0.00 39 1017.4
20260502102857 46 247 0.0 2.0 0.00 0.00 0.00 37 1017.4
20260502102758 46 238 1.0 2.0 0.00 0.00 0.00 38 1017.4
20260502102657 46 237 1.0 2.0 0.00 0.00 0.00 37 1017.4
20260502102556 46 236 1.0 2.0 0.00 0.00 0.00 38 1017.4
20260502102456 46 214 2.0 2.0 0.00 0.00 0.00 38 1017.5
20260502102355 46 158 0.0 2.0 0.00 0.00 0.00 37 1017.5
20260502102256 46 123 1.0 2.0 0.00 0.00 0.00 37 1017.5
20260502102056 46 92 1.0 2.0 0.00 0.00 0.00 37 1017.5
20260502101957 46 92 1.0 2.0 0.00 0.00 0.00 37 1017.5
20260502101857 46 89 0.0 2.0 0.00 0.00 0.00 37 1017.5
20260502101756 46 89 1.0 2.0 0.00 0.00 0.00 37 1017.6
20260502101557 46 89 0.0 1.0 0.00 0.00 0.00 38 1017.6
20260502101457 46 89 0.0 0.0 0.00 0.00 0.00 37 1017.6
20260502101356 46 89 0.0 0.0 0.00 0.00 0.00 37 1017.6
20260502101155 46 89 0.0 2.0 0.00 0.00 0.00 37 1017.6
20260502101056 46 89 0.0 2.0 0.00 0.00 0.00 37 1017.6
20260502100958 46 89 0.0 2.0 0.00 0.00 0.00 37 1017.6
20260502100856 47 89 0.0 2.0 0.00 0.00 0.00 37 1017.6
20260502100756 47 89 0.0 2.0 0.00 0.00 0.00 37 1017.6
20260502100656 47 89 0.0 2.0 0.00 0.00 0.00 38 1017.6
20260502100457 47 89 0.0 2.0 0.00 0.00 0.00 38 1017.6
20260502100356 47 89 0.0 2.0 0.00 0.00 0.00 37 1017.6
20260502100255 47 89 1.0 2.0 0.00 0.00 0.00 37 1017.6
20260502100157 47 89 0.0 3.0 0.00 0.00 0.00 36 1017.6
20260502091356 51 98 0.0 1.0 0.00 0.00 0.00 30 1017.4
20260502091256 51 98 0.0 1.0 0.00 0.00 0.00 29 1017.4
20260502091155 51 98 0.0 1.0 0.00 0.00 0.00 29 1017.4
20260502090957 51 142 0.0 0.0 0.00 0.00 0.00 29 1017.4
20260502090857 52 177 0.0 0.0 0.00 0.00 0.00 30 1017.3
20260502090757 52 177 0.0 0.0 0.00 0.00 0.00 28 1017.4
20260502090656 52 182 0.0 2.0 0.00 0.00 0.00 27 1017.3
20260502090557 52 242 0.0 3.0 0.00 0.00 0.00 28 1017.3
20260502090457 52 242 0.0 3.0 0.00 0.00 0.00 27 1017.3
20260502090356 52 243 0.0 3.0 0.00 0.00 0.00 28 1017.3
20260502090256 52 243 0.0 3.0 0.00 0.00 0.00 28 1017.3
20260502071356 54 17 0.0 2.0 0.00 0.00 0.00 28 1017.3
20260502071156 55 20 0.0 5.0 0.00 0.00 0.00 28 1017.3
20260502070956 55 292 1.0 5.0 0.00 0.00 0.00 27 1017.3
20260502070856 55 292 1.0 5.0 0.00 0.00 0.00 27 1017.3
20260502070757 56 290 1.0 8.0 0.00 0.00 0.00 26 1017.3
20260502070656 56 264 2.0 8.0 0.00 0.00 0.00 26 1017.3
20260502070555 56 111 1.0 8.0 0.00 0.00 0.00 25 1017.4
20260502070456 56 71 0.0 8.0 0.00 0.00 0.00 25 1017.4
20260502070155 56 146 2.0 8.0 0.00 0.00 0.00 24 1017.4
20260502070056 56 131 2.0 8.0 0.00 0.00 0.00 24 1017.4
20260502065856 57 101 1.0 7.0 0.00 0.00 0.00 24 1017.3
20260502065756 57 5 1.0 8.0 0.00 0.00 0.00 24 1017.4
20260502065556 57 5 2.0 11.0 0.00 0.00 0.00 22 1017.3
20260502065456 57 355 2.0 11.0 0.00 0.00 0.00 23 1017.4
20260502065356 57 355 4.0 11.0 0.00 0.00 0.00 22 1017.4
20260502065157 58 15 2.0 11.0 0.00 0.00 0.00 21 1017.4
20260502065056 58 49 1.0 11.0 0.00 0.00 0.00 22 1017.4
20260502064957 58 59 7.0 11.0 0.00 0.00 0.00 22 1017.3
20260502064756 57 47 4.0 11.0 0.00 0.00 0.00 22 1017.3
20260502064556 57 61 7.0 10.0 0.00 0.00 0.00 22 1017.3
20260502064457 57 360 3.0 9.0 0.00 0.00 0.00 22 1017.2
20260502064356 57 38 3.0 10.0 0.00 0.00 0.00 22 1017.2
20260502064256 57 36 2.0 10.0 0.00 0.00 0.00 22 1017.3
20260502064057 57 5 5.0 12.0 0.00 0.00 0.00 22 1017.2
20260502063856 57 78 2.0 12.0 0.00 0.00 0.00 22 1017.1
20260502063756 57 63 3.0 12.0 0.00 0.00 0.00 22 1017.1
20260502063656 57 85 6.0 12.0 0.00 0.00 0.00 21 1017.2
20260502063556 57 61 2.0 12.0 0.00 0.00 0.00 22 1017.1
20260502063458 57 90 3.0 12.0 0.00 0.00 0.00 22 1017.1
20260502063357 57 22 3.0 12.0 0.00 0.00 0.00 22 1017.1
20260502063256 57 33 3.0 9.0 0.00 0.00 0.00 22 1017.2
20260502063057 57 87 6.0 9.0 0.00 0.00 0.00 22 1017.1
20260502062956 57 76 9.0 9.0 0.00 0.00 0.00 22 1017.1
20260502062856 57 57 7.0 8.0 0.00 0.00 0.00 22 1017.1
20260502062756 57 74 2.0 8.0 0.00 0.00 0.00 22 1017.1
20260502062655 58 65 5.0 8.0 0.00 0.00 0.00 22 1017.1
20260502062556 58 63 3.0 8.0 0.00 0.00 0.00 22 1017.1
20260502062457 58 51 5.0 8.0 0.00 0.00 0.00 22 1017.1
20260502062356 58 57 2.0 8.0 0.00 0.00 0.00 22 1017.1
20260502062257 58 31 5.0 8.0 0.00 0.00 0.00 21 1017.1
20260502062157 58 45 5.0 8.0 0.00 0.00 0.00 22 1017.2
20260502061856 57 13 5.0 9.0 0.00 0.00 0.00 21 1017.1
20260502061655 57 34 3.0 9.0 0.00 0.00 0.00 21 1017.1
20260502061457 57 70 3.0 9.0 0.00 0.00 0.00 21 1017.1
20260502061355 57 38 3.0 9.0 0.00 0.00 0.00 22 1017.1
20260502061256 57 42 6.0 9.0 0.00 0.00 0.00 22 1017.1
20260502061155 57 62 3.0 9.0 0.00 0.00 0.00 22 1017.1
20260502061056 57 58 2.0 10.0 0.00 0.00 0.00 22 1017.1
20260502060855 57 73 4.0 13.0 0.00 0.00 0.00 22 1017.0
20260502060756 57 90 7.0 13.0 0.00 0.00 0.00 22 1017.0
20260502060656 57 71 5.0 13.0 0.00 0.00 0.00 22 1017.0
20260502060556 57 85 3.0 13.0 0.00 0.00 0.00 22 1017.1
20260502060357 58 78 7.0 13.0 0.00 0.00 0.00 22 1017.1
20260502060255 58 42 4.0 13.0 0.00 0.00 0.00 22 1017.1
20260502060158 58 39 5.0 13.0 0.00 0.00 0.00 22 1017.1
20260502060058 58 65 11.0 11.0 0.00 0.00 0.00 22 1017.1
20260502060002 58 30 4.0 11.0 0.00 0.00 0.00 21 1017.1
20260502055858 58 71 5.0 11.0 0.00 0.00 0.00 22 1017.0
20260502055758 58 71 3.0 11.0 0.00 0.00 0.00 22 1017.1
20260502055658 58 56 8.0 11.0 0.00 0.00 0.00 22 1017.0
20260502055558 58 53 7.0 11.0 0.00 0.00 0.00 22 1017.1
20260502055458 58 77 4.0 11.0 0.00 0.00 0.00 22 1017.1
20260502055357 58 65 7.0 11.0 0.00 0.00 0.00 22 1017.0
20260502055259 57 84 3.0 11.0 0.00 0.00 0.00 22 1017.1
20260502055057 57 63 4.0 10.0 0.00 0.00 0.00 22 1017.1
20260502054958 57 19 2.0 10.0 0.00 0.00 0.00 22 1017.1
20260502054858 57 81 6.0 10.0 0.00 0.00 0.00 22 1017.1
20260502054758 57 63 2.0 10.0 0.00 0.00 0.00 23 1017.1
20260502054657 57 38 2.0 10.0 0.00 0.00 0.00 23 1017.1
20260502054358 57 92 3.0 10.0 0.00 0.00 0.00 23 1017.1
20260502054258 57 44 7.0 10.0 0.00 0.00 0.00 23 1017.0
20260502054157 57 82 7.0 10.0 0.00 0.00 0.00 23 1017.0
20260502054058 57 90 3.0 10.0 0.00 0.00 0.00 23 1017.0
20260502053958 57 69 7.0 10.0 0.00 0.00 0.00 23 1017.1
20260502053858 57 90 3.0 10.0 0.00 0.00 0.00 23 1017.0
20260502053757 57 67 3.0 10.0 0.00 0.00 0.00 23 1017.0
20260502053657 57 88 5.0 10.0 0.00 0.00 0.00 24 1017.0
20260502053558 57 86 3.0 10.0 0.00 0.00 0.00 23 1017.0
20260502053458 57 93 6.0 10.0 0.00 0.00 0.00 24 1017.0
20260502053358 56 108 3.0 10.0 0.00 0.00 0.00 23 1017.0
20260502053258 56 98 2.0 10.0 0.00 0.00 0.00 23 1017.0
20260502053059 56 76 4.0 9.0 0.00 0.00 0.00 23 1017.0
20260502052958 56 44 5.0 9.0 0.00 0.00 0.00 23 1017.0
20260502052800 56 130 5.0 9.0 0.00 0.00 0.00 24 1017.0
20260502052657 56 121 1.0 8.0 0.00 0.00 0.00 24 1017.0
20260502052557 56 45 4.0 8.0 0.00 0.00 0.00 24 1016.9
20260502052357 56 105 1.0 7.0 0.00 0.00 0.00 24 1017.0
20260502052258 56 57 3.0 7.0 0.00 0.00 0.00 24 1016.9
20260502052157 56 82 0.0 7.0 0.00 0.00 0.00 24 1017.0
20260502052057 56 110 1.0 7.0 0.00 0.00 0.00 24 1017.0
20260502051959 56 81 1.0 8.0 0.00 0.00 0.00 24 1016.9
20260502051758 56 99 2.0 8.0 0.00 0.00 0.00 24 1016.9
20260502051657 56 65 4.0 8.0 0.00 0.00 0.00 24 1017.0
20260502051557 56 88 1.0 8.0 0.00 0.00 0.00 24 1017.0
20260502051458 56 57 2.0 8.0 0.00 0.00 0.00 24 1017.0
20260502051257 56 66 7.0 8.0 0.00 0.00 0.00 25 1017.0
20260502051059 55 86 5.0 8.0 0.00 0.00 0.00 25 1017.0
20260502050958 55 67 4.0 8.0 0.00 0.00 0.00 25 1017.0
20260502050757 55 94 3.0 7.0 0.00 0.00 0.00 26 1016.9
20260502050658 55 59 3.0 5.0 0.00 0.00 0.00 26 1016.9
20260502050558 55 74 2.0 5.0 0.00 0.00 0.00 26 1016.9
20260502050458 55 55 1.0 5.0 0.00 0.00 0.00 27 1016.9
20260502050358 54 61 3.0 5.0 0.00 0.00 0.00 27 1017.0
20260502050257 54 66 1.0 5.0 0.00 0.00 0.00 27 1016.9
20260502050157 54 66 0.0 5.0 0.00 0.00 0.00 27 1016.9
20260502050058 54 67 3.0 5.0 0.00 0.00 0.00 28 1017.0
20260502045959 54 89 2.0 5.0 0.00 0.00 0.00 27 1017.0
20260502045858 54 74 0.0 3.0 0.00 0.00 0.00 28 1017.0
20260502045757 53 85 1.0 3.0 0.00 0.00 0.00 28 1016.9
20260502045657 53 85 0.0 3.0 0.00 0.00 0.00 28 1017.0
20260502045557 53 115 0.0 3.0 0.00 0.00 0.00 29 1017.0
20260502045458 53 115 0.0 3.0 0.00 0.00 0.00 29 1017.0
20260502045358 53 115 0.0 3.0 0.00 0.00 0.00 30 1017.0
20260502045257 53 115 0.0 4.0 0.00 0.00 0.00 27 1017.0
20260502045158 53 115 1.0 4.0 0.00 0.00 0.00 27 1017.0
20260502045058 53 80 1.0 4.0 0.00 0.00 0.00 28 1017.0
20260502044957 53 51 2.0 4.0 0.00 0.00 0.00 28 1017.0
20260502044857 53 73 1.0 4.0 0.00 0.00 0.00 27 1017.0
20260502044759 53 81 2.0 4.0 0.00 0.00 0.00 29 1017.0
20260502044657 53 93 0.0 4.0 0.00 0.00 0.00 28 1017.0
20260502044557 53 72 0.0 4.0 0.00 0.00 0.00 28 1017.0
20260502044504 53 72 0.0 4.0 0.00 0.00 0.00 27 1017.0
20260502044357 53 55 1.0 5.0 0.00 0.00 0.00 28 1017.0
20260502044257 53 115 0.0 2.0 0.00 0.00 0.00 29 1017.0
20260502044158 53 76 0.0 2.0 0.00 0.00 0.00 29 1017.0
20260502044057 53 76 0.0 2.0 0.00 0.00 0.00 30 1017.0
20260502043958 53 76 0.0 2.0 0.00 0.00 0.00 30 1017.0
20260502043857 53 76 0.0 2.0 0.00 0.00 0.00 29 1017.0
20260502043758 53 76 0.0 2.0 0.00 0.00 0.00 30 1017.0
20260502043658 53 76 0.0 2.0 0.00 0.00 0.00 31 1017.0
20260502043557 53 76 0.0 2.0 0.00 0.00 0.00 30 1017.0
20260502043457 53 76 0.0 2.0 0.00 0.00 0.00 31 1017.0
20260502043358 53 76 0.0 2.0 0.00 0.00 0.00 30 1017.0
20260502043257 53 76 2.0 2.0 0.00 0.00 0.00 30 1017.0
20260502043157 53 71 1.0 2.0 0.00 0.00 0.00 31 1017.0
20260502043058 53 71 1.0 2.0 0.00 0.00 0.00 31 1017.0
20260502042957 53 71 1.0 2.0 0.00 0.00 0.00 32 1017.0
20260502042857 53 71 1.0 2.0 0.00 0.00 0.00 35 1017.0
20260502042758 53 71 2.0 2.0 0.00 0.00 0.00 33 1017.0
20260502042658 53 71 2.0 2.0 0.00 0.00 0.00 34 1017.0
20260502042558 53 53 1.0 2.0 0.00 0.00 0.00 34 1017.0
20260502042457 53 53 1.0 2.0 0.00 0.00 0.00 35 1016.9
20260502042359 53 51 0.0 3.0 0.00 0.00 0.00 35 1016.9
20260502042257 53 51 1.0 3.0 0.00 0.00 0.00 36 1017.0
20260502042157 53 46 1.0 3.0 0.00 0.00 0.00 33 1016.9
20260502042057 53 46 0.0 3.0 0.00 0.00 0.00 33 1017.0
20260502041959 53 46 1.0 3.0 0.00 0.00 0.00 33 1016.9
20260502041858 53 46 0.0 3.0 0.00 0.00 0.00 34 1017.0
20260502041758 53 46 1.0 3.0 0.00 0.00 0.00 34 1016.9
20260502041657 53 46 1.0 3.0 0.00 0.00 0.00 37 1016.9
20260502041558 53 63 1.0 3.0 0.00 0.00 0.00 37 1016.9
20260502041459 54 65 2.0 3.0 0.00 0.00 0.00 37 1017.0
20260502041257 54 64 1.0 3.0 0.00 0.00 0.00 37 1016.9
20260502041058 54 65 2.0 3.0 0.00 0.00 0.00 33 1016.9
20260502040857 54 65 2.0 3.0 0.00 0.00 0.00 35 1016.9
20260502040657 54 65 2.0 3.0 0.00 0.00 0.00 32 1016.8
20260502040559 54 76 2.0 3.0 0.00 0.00 0.00 29 1016.8
20260502040358 54 82 1.0 1.0 0.00 0.00 0.00 31 1016.8
20260502040257 55 82 0.0 0.0 0.00 0.00 0.00 32 1016.8
20260502040157 55 82 0.0 0.0 0.00 0.00 0.00 32 1016.8
20260502040058 55 82 0.0 0.0 0.00 0.00 0.00 31 1016.8
20260502035959 55 82 0.0 1.0 0.00 0.00 0.00 30 1016.8
20260502035857 55 82 0.0 1.0 0.00 0.00 0.00 30 1016.8
20260502035556 55 82 0.0 2.0 0.00 0.00 0.00 30 1016.8
20260502035458 55 82 0.0 2.0 0.00 0.00 0.00 30 1016.8
20260502035356 55 82 0.0 2.0 0.00 0.00 0.00 31 1016.8
20260502035257 55 82 0.0 2.0 0.00 0.00 0.00 31 1016.8
20260502035159 55 82 0.0 2.0 0.00 0.00 0.00 30 1016.8
20260502035057 54 82 0.0 2.0 0.00 0.00 0.00 31 1016.8
20260502034957 54 82 0.0 2.0 0.00 0.00 0.00 30 1016.8
20260502034857 54 82 1.0 2.0 0.00 0.00 0.00 29 1016.7
20260502034759 54 82 1.0 2.0 0.00 0.00 0.00 30 1016.7
20260502034657 54 82 1.0 2.0 0.00 0.00 0.00 30 1016.7
20260502034557 54 82 1.0 2.0 0.00 0.00 0.00 31 1016.7
20260502034458 54 82 1.0 1.0 0.00 0.00 0.00 31 1016.7
20260502034357 54 82 0.0 1.0 0.00 0.00 0.00 32 1016.7
20260502034256 54 82 0.0 1.0 0.00 0.00 0.00 31 1016.7
20260502034157 54 82 0.0 1.0 0.00 0.00 0.00 31 1016.7
20260502034057 55 82 0.0 1.0 0.00 0.00 0.00 31 1016.7
20260502033958 55 82 1.0 1.0 0.00 0.00 0.00 31 1016.7
20260502033857 55 82 0.0 1.0 0.00 0.00 0.00 31 1016.6
20260502033757 55 82 0.0 1.0 0.00 0.00 0.00 30 1016.7
20260502033659 55 82 0.0 2.0 0.00 0.00 0.00 30 1016.6
20260502033458 55 82 0.0 2.0 0.00 0.00 0.00 30 1016.6
20260502033356 55 82 0.0 2.0 0.00 0.00 0.00 30 1016.6
20260502033256 55 82 0.0 2.0 0.00 0.00 0.00 30 1016.6
20260502033157 55 82 0.0 2.0 0.00 0.00 0.00 31 1016.6
20260502033057 55 82 0.0 2.0 0.00 0.00 0.00 30 1016.6
20260502032958 55 82 1.0 2.0 0.00 0.00 0.00 30 1016.6
20260502032857 55 82 0.0 2.0 0.00 0.00 0.00 30 1016.5
20260502032757 55 82 1.0 3.0 0.00 0.00 0.00 30 1016.6
20260502032657 55 86 0.0 3.0 0.00 0.00 0.00 29 1016.5
20260502032558 55 86 1.0 5.0 0.00 0.00 0.00 29 1016.5
20260502032457 55 96 1.0 5.0 0.00 0.00 0.00 29 1016.5
20260502032357 55 99 1.0 5.0 0.00 0.00 0.00 29 1016.5
20260502032259 56 113 1.0 5.0 0.00 0.00 0.00 29 1016.5
20260502032157 56 115 0.0 5.0 0.00 0.00 0.00 28 1016.5
20260502031959 56 119 1.0 6.0 0.00 0.00 0.00 29 1016.5
20260502031857 56 144 2.0 6.0 0.00 0.00 0.00 30 1016.5
20260502031558 56 114 0.0 6.0 0.00 0.00 0.00 30 1016.4
20260502031458 56 205 2.0 6.0 0.00 0.00 0.00 30 1016.4
20260502031357 56 212 2.0 6.0 0.00 0.00 0.00 29 1016.4
20260502031257 56 210 3.0 6.0 0.00 0.00 0.00 29 1016.4
20260502031157 56 200 3.0 3.0 0.00 0.00 0.00 28 1016.3
20260502031058 56 55 1.0 3.0 0.00 0.00 0.00 27 1016.3
20260502030958 56 55 0.0 3.0 0.00 0.00 0.00 28 1016.3
20260502030858 56 56 0.0 3.0 0.00 0.00 0.00 28 1016.3
20260502030757 56 49 2.0 4.0 0.00 0.00 0.00 28 1016.3
20260502030658 56 58 2.0 4.0 0.00 0.00 0.00 28 1016.3
20260502030557 56 77 2.0 4.0 0.00 0.00 0.00 28 1016.2
20260502030458 56 48 0.0 4.0 0.00 0.00 0.00 28 1016.2
20260502030357 56 51 2.0 4.0 0.00 0.00 0.00 27 1016.2
20260502030257 56 59 1.0 4.0 0.00 0.00 0.00 28 1016.2
20260502030156 56 60 2.0 4.0 0.00 0.00 0.00 28 1016.1
20260502030057 56 67 2.0 4.0 0.00 0.00 0.00 29 1016.2
20260502030000 57 69 3.0 4.0 0.00 0.00 0.00 28 1016.2
20260502025858 57 80 3.0 4.0 0.00 0.00 0.00 27 1016.2
20260502025757 57 69 1.0 4.0 0.00 0.00 0.00 27 1016.1
20260502025658 57 64 2.0 4.0 0.00 0.00 0.00 28 1016.1
20260502025557 57 67 3.0 4.0 0.00 0.00 0.00 28 1016.1
20260502025458 57 53 1.0 4.0 0.00 0.00 0.00 28 1016.1
20260502025357 57 61 2.0 4.0 0.00 0.00 0.00 29 1016.1
20260502025257 57 69 3.0 4.0 0.00 0.00 0.00 28 1016.1
20260502025157 57 68 2.0 3.0 0.00 0.00 0.00 28 1016.1
20260502024958 57 66 3.0 3.0 0.00 0.00 0.00 29 1016.1
20260502024857 58 71 3.0 3.0 0.00 0.00 0.00 29 1016.1
20260502024758 58 75 2.0 2.0 0.00 0.00 0.00 29 1016.0
20260502024657 58 75 2.0 2.0 0.00 0.00 0.00 28 1016.0
20260502024557 58 75 0.0 2.0 0.00 0.00 0.00 28 1016.0
20260502024457 58 75 1.0 2.0 0.00 0.00 0.00 27 1016.0
20260502024357 58 75 1.0 2.0 0.00 0.00 0.00 28 1016.0
20260502024257 58 75 1.0 3.0 0.00 0.00 0.00 28 1016.1
20260502024156 58 75 1.0 3.0 0.00 0.00 0.00 28 1016.0
20260502023958 58 75 0.0 3.0 0.00 0.00 0.00 27 1016.0
20260502023757 59 75 0.0 3.0 0.00 0.00 0.00 27 1016.0
20260502023657 59 77 1.0 3.0 0.00 0.00 0.00 27 1016.0
20260502023558 59 77 2.0 3.0 0.00 0.00 0.00 27 1016.0
20260502023357 59 90 1.0 3.0 0.00 0.00 0.00 26 1016.0
20260502023257 59 245 2.0 2.0 0.00 0.00 0.00 25 1016.0
20260502023156 59 245 1.0 1.0 0.00 0.00 0.00 25 1016.0
20260502023058 59 245 0.0 1.0 0.00 0.00 0.00 24 1016.0
20260502022958 59 244 0.0 1.0 0.00 0.00 0.00 25 1016.0
20260502022856 59 244 1.0 1.0 0.00 0.00 0.00 24 1016.0
20260502022658 59 245 0.0 0.0 0.00 0.00 0.00 23 1015.9
20260502022557 60 244 0.0 0.0 0.00 0.00 0.00 23 1015.9
20260502022500 60 244 0.0 0.0 0.00 0.00 0.00 22 1015.9
20260502022357 60 245 0.0 0.0 0.00 0.00 0.00 22 1015.9
20260502022257 60 245 0.0 0.0 0.00 0.00 0.00 22 1015.9
20260502022200 60 245 0.0 0.0 0.00 0.00 0.00 22 1015.9
20260502021957 60 245 0.0 0.0 0.00 0.00 0.00 22 1015.9
20260502021858 60 245 0.0 0.0 0.00 0.00 0.00 22 1015.9
20260502021758 60 244 0.0 0.0 0.00 0.00 0.00 21 1015.9
20260502021658 60 244 0.0 0.0 0.00 0.00 0.00 21 1015.9
20260502021557 61 244 0.0 1.0 0.00 0.00 0.00 21 1015.9
20260502021457 61 245 0.0 1.0 0.00 0.00 0.00 22 1015.9
20260502021357 61 244 0.0 2.0 0.00 0.00 0.00 22 1015.9
20260502021258 61 244 0.0 2.0 0.00 0.00 0.00 22 1015.9
20260502021157 61 244 0.0 2.0 0.00 0.00 0.00 21 1015.9
20260502021057 61 245 0.0 2.0 0.00 0.00 0.00 22 1015.9
20260502020958 61 245 0.0 2.0 0.00 0.00 0.00 22 1015.9
20260502020857 61 244 0.0 2.0 0.00 0.00 0.00 22 1015.9
20260502020758 61 245 0.0 3.0 0.00 0.00 0.00 22 1015.8
20260502020656 62 245 0.0 3.0 0.00 0.00 0.00 22 1015.8
20260502020558 62 245 1.0 3.0 0.00 0.00 0.00 21 1015.9
20260502020357 62 257 0.0 3.0 0.00 0.00 0.00 22 1015.9
20260502020257 62 257 0.0 3.0 0.00 0.00 0.00 22 1015.8
20260502020158 62 257 2.0 3.0 0.00 0.00 0.00 21 1015.9
20260502020057 62 249 1.0 4.0 0.00 0.00 0.00 21 1015.9
20260502020000 62 245 0.0 4.0 0.00 0.00 0.00 21 1015.9
20260502015858 62 244 3.0 4.0 0.00 0.00 0.00 21 1015.8
20260502015757 62 304 1.0 4.0 0.00 0.00 0.00 22 1015.8
20260502015657 62 305 1.0 4.0 0.00 0.00 0.00 21 1015.8
20260502015557 62 256 2.0 4.0 0.00 0.00 0.00 21 1015.8
20260502015457 62 254 1.0 4.0 0.00 0.00 0.00 20 1015.8
20260502015358 62 269 2.0 4.0 0.00 0.00 0.00 21 1015.8
20260502015257 62 339 1.0 4.0 0.00 0.00 0.00 21 1015.8
20260502015157 62 227 1.0 4.0 0.00 0.00 0.00 21 1015.8
20260502015057 62 249 1.0 4.0 0.00 0.00 0.00 21 1015.8
20260502014957 62 276 3.0 4.0 0.00 0.00 0.00 21 1015.8
20260502014857 62 244 1.0 3.0 0.00 0.00 0.00 21 1015.8
20260502014758 62 243 3.0 3.0 0.00 0.00 0.00 20 1015.8
20260502014657 62 266 0.0 3.0 0.00 0.00 0.00 20 1015.7
20260502014557 63 266 0.0 3.0 0.00 0.00 0.00 21 1015.8
20260502014458 63 263 0.0 3.0 0.00 0.00 0.00 20 1015.8
20260502014358 63 254 1.0 3.0 0.00 0.00 0.00 20 1015.7
20260502014257 63 156 0.0 3.0 0.00 0.00 0.00 20 1015.7
20260502014058 63 321 2.0 3.0 0.00 0.00 0.00 21 1015.7
20260502013857 63 292 2.0 3.0 0.00 0.00 0.00 21 1015.7
20260502013757 63 237 2.0 3.0 0.00 0.00 0.00 20 1015.7
20260502013657 63 250 1.0 4.0 0.00 0.00 0.00 20 1015.7
20260502013357 63 275 0.0 4.0 0.00 0.00 0.00 21 1015.7
20260502013258 63 268 1.0 4.0 0.00 0.00 0.00 19 1015.7
20260502013159 63 267 0.0 4.0 0.00 0.00 0.00 20 1015.7
20260502013106 63 260 0.0 5.0 0.00 0.00 0.00 20 1015.7
20260502012958 63 257 1.0 7.0 0.00 0.00 0.00 21 1015.7
20260502012858 63 252 3.0 7.0 0.00 0.00 0.00 20 1015.6
20260502012757 63 308 1.0 7.0 0.00 0.00 0.00 21 1015.6
20260502012657 63 194 3.0 7.0 0.00 0.00 0.00 19 1015.6
20260502012557 64 256 3.0 7.0 0.00 0.00 0.00 20 1015.7
20260502012458 64 261 1.0 7.0 0.00 0.00 0.00 20 1015.6
20260502012357 64 288 2.0 7.0 0.00 0.00 0.00 20 1015.6
20260502012257 64 250 1.0 7.0 0.00 0.00 0.00 21 1015.7
20260502012156 64 254 2.0 7.0 0.00 0.00 0.00 21 1015.6
20260502012059 64 240 2.0 4.0 0.00 0.00 0.00 19 1015.7
20260502011957 64 304 2.0 3.0 0.00 0.00 0.00 20 1015.7
20260502011858 64 281 1.0 3.0 0.00 0.00 0.00 19 1015.7
20260502011757 64 265 3.0 3.0 0.00 0.00 0.00 20 1015.6
20260502011558 64 269 0.0 4.0 0.00 0.00 0.00 19 1015.7
20260502011457 64 295 0.0 4.0 0.00 0.00 0.00 20 1015.7
20260502011357 64 286 0.0 4.0 0.00 0.00 0.00 20 1015.7
20260502011257 64 286 2.0 4.0 0.00 0.00 0.00 20 1015.7
20260502011157 64 301 1.0 7.0 0.00 0.00 0.00 21 1015.7
20260502011058 64 315 1.0 7.0 0.00 0.00 0.00 19 1015.7
20260502010957 64 316 1.0 7.0 0.00 0.00 0.00 20 1015.7
20260502010856 64 304 1.0 7.0 0.00 0.00 0.00 20 1015.7
20260502010757 64 257 2.0 7.0 0.00 0.00 0.00 19 1015.7
20260502010657 64 252 1.0 7.0 0.00 0.00 0.00 20 1015.7
20260502010558 64 281 1.0 7.0 0.00 0.00 0.00 19 1015.7
20260502010457 64 248 3.0 7.0 0.00 0.00 0.00 19 1015.7
20260502010357 64 319 1.0 7.0 0.00 0.00 0.00 19 1015.7
20260502010257 64 224 2.0 5.0 0.00 0.00 0.00 20 1015.7
20260502010157 64 236 1.0 5.0 0.00 0.00 0.00 19 1015.7
20260502010057 64 264 1.0 5.0 0.00 0.00 0.00 20 1015.7
20260502010000 64 295 4.0 5.0 0.00 0.00 0.00 20 1015.7
20260502005857 64 273 2.0 5.0 0.00 0.00 0.00 20 1015.7
20260502005757 64 303 1.0 5.0 0.00 0.00 0.00 19 1015.7
20260502005557 65 317 3.0 5.0 0.00 0.00 0.00 19 1015.7
20260502005458 65 309 0.0 3.0 0.00 0.00 0.00 18 1015.7
20260502005357 65 296 1.0 3.0 0.00 0.00 0.00 20 1015.7
20260502005258 65 314 1.0 4.0 0.00 0.00 0.00 20 1015.7
20260502005157 65 329 0.0 5.0 0.00 0.00 0.00 20 1015.7
20260502004957 65 318 1.0 5.0 0.00 0.00 0.00 20 1015.7
20260502004857 65 321 2.0 5.0 0.00 0.00 0.00 20 1015.7
20260502004757 65 330 1.0 5.0 0.00 0.00 0.00 20 1015.7
20260502004557 65 271 2.0 5.0 0.00 0.00 0.00 20 1015.7
20260502004458 65 280 1.0 5.0 0.00 0.00 0.00 20 1015.7
20260502004358 65 346 3.0 5.0 0.00 0.00 0.00 20 1015.7
20260502004258 65 326 3.0 5.0 0.00 0.00 0.00 20 1015.6
20260502004157 65 9 0.0 4.0 0.00 0.00 0.00 20 1015.7
20260502004057 65 344 1.0 4.0 0.00 0.00 0.00 20 1015.7
20260502003957 65 251 2.0 4.0 0.00 0.00 0.00 19 1015.7
20260502003857 65 322 2.0 4.0 0.00 0.00 0.00 19 1015.7
20260502003757 65 313 1.0 4.0 0.00 0.00 0.00 20 1015.7
20260502003657 65 302 3.0 4.0 0.00 0.00 0.00 19 1015.7
20260502003557 65 284 2.0 8.0 0.00 0.00 0.00 19 1015.7
20260502003458 65 267 2.0 8.0 0.00 0.00 0.00 20 1015.6
20260502003257 65 315 2.0 8.0 0.00 0.00 0.00 18 1015.7
20260502003158 65 321 1.0 8.0 0.00 0.00 0.00 18 1015.7
20260502003057 66 325 1.0 8.0 0.00 0.00 0.00 18 1015.7
20260502002857 66 250 2.0 8.0 0.00 0.00 0.00 20 1015.7
20260502002757 66 327 3.0 8.0 0.00 0.00 0.00 20 1015.7
20260502002657 66 225 2.0 8.0 0.00 0.00 0.00 20 1015.7
20260502002557 66 246 5.0 6.0 0.00 0.00 0.00 20 1015.7
20260502002457 66 298 2.0 7.0 0.00 0.00 0.00 19 1015.7
20260502002359 66 219 2.0 7.0 0.00 0.00 0.00 18 1015.7
20260502002257 66 319 2.0 7.0 0.00 0.00 0.00 19 1015.7
20260502002157 66 293 1.0 7.0 0.00 0.00 0.00 19 1015.7
20260502002057 66 284 5.0 7.0 0.00 0.00 0.00 20 1015.7
20260502001857 66 146 4.0 7.0 0.00 0.00 0.00 20 1015.7
20260502001758 66 207 2.0 7.0 0.00 0.00 0.00 19 1015.7
20260502001656 66 247 2.0 7.0 0.00 0.00 0.00 19 1015.7
20260502001558 66 246 2.0 4.0 0.00 0.00 0.00 20 1015.8
20260502001457 66 255 1.0 4.0 0.00 0.00 0.00 19 1015.8
20260502001357 66 314 1.0 4.0 0.00 0.00 0.00 18 1015.7
20260502001258 66 328 2.0 4.0 0.00 0.00 0.00 18 1015.7
20260502001157 66 320 2.0 6.0 0.00 0.00 0.00 19 1015.7
20260502001058 66 246 2.0 7.0 0.00 0.00 0.00 18 1015.7
20260502000957 66 360 1.0 7.0 0.00 0.00 0.00 19 1015.7
20260502000857 66 355 0.0 7.0 0.00 0.00 0.00 19 1015.8
20260502000758 66 350 2.0 7.0 0.00 0.00 0.00 20 1015.8
20260502000457 66 269 1.0 7.0 0.00 0.00 0.00 21 1015.7
20260502000257 66 301 6.0 7.0 0.00 0.00 0.00 19 1015.7
20260502000157 66 279 1.0 6.0 0.00 0.00 0.00 20 1015.7
20260502000001 66 320 0.0 6.0 0.00 0.00 0.00 20 1015.7
20260501235857 66 284 2.0 6.0 0.00 0.00 0.00 19 1015.7
20260501235757 66 313 0.0 6.0 0.00 0.00 0.00 19 1015.7
20260501235657 66 251 6.0 6.0 0.00 0.00 0.00 18 1015.7
20260501235557 66 280 1.0 6.0 0.00 0.00 0.00 20 1015.7
20260501235457 66 305 2.0 6.0 0.00 0.00 0.00 20 1015.7
20260501235357 66 322 6.0 6.0 0.00 0.00 0.00 20 1015.7
20260501235156 66 342 4.0 5.0 0.00 0.00 0.00 19 1015.7
20260501235058 66 320 2.0 5.0 0.00 0.00 0.00 20 1015.7
20260501234958 66 306 4.0 5.0 0.00 0.00 0.00 20 1015.8
20260501234856 66 269 2.0 5.0 0.00 0.00 0.00 18 1015.7
20260501234758 66 24 1.0 6.0 0.00 0.00 0.00 19 1015.7
20260501234557 66 317 3.0 7.0 0.00 0.00 0.00 19 1015.7
20260501234458 66 355 2.0 7.0 0.00 0.00 0.00 21 1015.7
20260501234357 66 315 2.0 7.0 0.00 0.00 0.00 20 1015.7
20260501234258 66 257 2.0 7.0 0.00 0.00 0.00 18 1015.7
20260501234157 66 313 2.0 7.0 0.00 0.00 0.00 19 1015.7
20260501234057 66 339 3.0 7.0 0.00 0.00 0.00 21 1015.7
20260501233857 66 191 3.0 7.0 0.00 0.00 0.00 21 1015.7
20260501233657 66 297 2.0 7.0 0.00 0.00 0.00 20 1015.7
20260501233558 66 322 1.0 7.0 0.00 0.00 0.00 18 1015.7
20260501233458 66 315 3.0 7.0 0.00 0.00 0.00 18 1015.7
20260501233358 66 239 3.0 7.0 0.00 0.00 0.00 20 1015.8
20260501233257 66 304 5.0 7.0 0.00 0.00 0.00 19 1015.8
20260501233158 66 321 2.0 7.0 0.00 0.00 0.00 18 1015.8
20260501233057 66 278 3.0 10.0 0.00 0.00 0.00 19 1015.7
20260501232957 66 283 1.0 10.0 0.00 0.00 0.00 18 1015.8
20260501232857 66 334 3.0 10.0 0.00 0.00 0.00 21 1015.8
20260501232757 66 245 2.0 10.0 0.00 0.00 0.00 18 1015.8
20260501232657 66 254 2.0 10.0 0.00 0.00 0.00 18 1015.8
20260501232558 66 355 3.0 10.0 0.00 0.00 0.00 19 1015.8
20260501232457 66 319 3.0 10.0 0.00 0.00 0.00 19 1015.8
20260501232358 66 278 2.0 10.0 0.00 0.00 0.00 19 1015.8
20260501232257 66 311 2.0 10.0 0.00 0.00 0.00 20 1015.8
20260501232157 66 323 1.0 6.0 0.00 0.00 0.00 20 1015.8
20260501231859 66 228 3.0 6.0 0.00 0.00 0.00 20 1015.9
20260501231756 66 250 2.0 4.0 0.00 0.00 0.00 19 1015.9
20260501231458 66 316 3.0 4.0 0.00 0.00 0.00 19 1015.9
20260501231356 66 321 2.0 4.0 0.00 0.00 0.00 19 1015.9
20260501231158 66 355 1.0 4.0 0.00 0.00 0.00 19 1015.9
20260501231057 66 342 2.0 4.0 0.00 0.00 0.00 20 1015.9
20260501230958 66 333 3.0 5.0 0.00 0.00 0.00 20 1015.9
20260501230857 66 151 2.0 6.0 0.00 0.00 0.00 20 1015.9
20260501230758 66 350 1.0 6.0 0.00 0.00 0.00 19 1015.9
20260501230656 66 318 0.0 6.0 0.00 0.00 0.00 19 1015.9
20260501230256 65 342 2.0 6.0 0.00 0.00 0.00 19 1015.9
20260501230157 65 333 1.0 6.0 0.00 0.00 0.00 20 1016.0
20260501230057 65 165 3.0 8.0 0.00 0.00 0.00 19 1016.0
20260501225959 65 265 4.0 8.0 0.00 0.00 0.00 20 1016.0
20260501225857 65 339 5.0 8.0 0.00 0.00 0.00 19 1016.0
20260501225758 65 298 2.0 8.0 0.00 0.00 0.00 20 1016.0
20260501225658 65 264 4.0 8.0 0.00 0.00 0.00 22 1016.0
20260501225556 65 319 2.0 8.0 0.00 0.00 0.00 19 1016.0
20260501225457 65 316 2.0 8.0 0.00 0.00 0.00 18 1016.0
20260501225357 65 309 1.0 8.0 0.00 0.00 0.00 18 1016.1
20260501225257 65 293 1.0 8.0 0.00 0.00 0.00 21 1016.0
20260501225157 65 192 5.0 8.0 0.00 0.00 0.00 21 1016.1
20260501225056 65 221 5.0 5.0 0.00 0.00 0.00 22 1016.1
20260501224957 65 219 4.0 6.0 0.00 0.00 0.00 18 1016.1
20260501224858 65 286 2.0 6.0 0.00 0.00 0.00 20 1016.0
20260501224756 65 342 2.0 7.0 0.00 0.00 0.00 22 1016.0
20260501224557 65 238 2.0 7.0 0.00 0.00 0.00 20 1016.1
20260501224458 65 301 1.0 7.0 0.00 0.00 0.00 19 1016.1
20260501224357 65 298 2.0 7.0 0.00 0.00 0.00 20 1016.1
20260501224257 65 346 2.0 7.0 0.00 0.00 0.00 20 1016.1
20260501224156 65 323 3.0 7.0 0.00 0.00 0.00 21 1016.1
20260501224057 65 285 4.0 7.0 0.00 0.00 0.00 21 1016.1
20260501223957 65 257 6.0 7.0 0.00 0.00 0.00 20 1016.1
20260501223857 65 311 5.0 5.0 0.00 0.00 0.00 20 1016.1
20260501223757 65 290 1.0 4.0 0.00 0.00 0.00 21 1016.1
20260501223657 65 297 2.0 4.0 0.00 0.00 0.00 20 1016.2
20260501223458 65 355 2.0 4.0 0.00 0.00 0.00 21 1016.2
20260501223357 65 263 2.0 5.0 0.00 0.00 0.00 23 1016.2
20260501223257 65 274 3.0 5.0 0.00 0.00 0.00 20 1016.2
20260501223158 65 317 3.0 5.0 0.00 0.00 0.00 21 1016.2
20260501223057 65 288 1.0 5.0 0.00 0.00 0.00 18 1016.2
20260501222957 65 347 1.0 5.0 0.00 0.00 0.00 20 1016.2
20260501222857 65 309 2.0 5.0 0.00 0.00 0.00 20 1016.2
20260501222457 65 298 3.0 5.0 0.00 0.00 0.00 20 1016.3
20260501222256 65 289 2.0 4.0 0.00 0.00 0.00 20 1016.3
20260501222157 65 321 3.0 5.0 0.00 0.00 0.00 20 1016.3
20260501222057 65 319 2.0 7.0 0.00 0.00 0.00 19 1016.3
20260501221857 65 5 0.0 7.0 0.00 0.00 0.00 20 1016.4
20260501221656 65 313 3.0 7.0 0.00 0.00 0.00 18 1016.4
20260501221557 65 334 2.0 7.0 0.00 0.00 0.00 19 1016.4
20260501221457 65 345 1.0 7.0 0.00 0.00 0.00 19 1016.4
20260501221357 65 310 1.0 7.0 0.00 0.00 0.00 20 1016.4
20260501221257 65 296 5.0 7.0 0.00 0.00 0.00 20 1016.5
20260501221157 65 294 4.0 5.0 0.00 0.00 0.00 20 1016.4
20260501221058 65 355 3.0 6.0 0.00 0.00 0.00 19 1016.4
20260501220957 65 188 1.0 6.0 0.00 0.00 0.00 20 1016.5
20260501220657 65 325 3.0 6.0 0.00 0.00 0.00 19 1016.5
20260501220557 65 340 2.0 6.0 0.00 0.00 0.00 20 1016.5
20260501220457 65 334 3.0 6.0 0.00 0.00 0.00 20 1016.5
20260501220256 65 317 4.0 6.0 0.00 0.00 0.00 19 1016.6
20260501220157 65 292 3.0 5.0 0.00 0.00 0.00 21 1016.5
20260501220057 65 290 1.0 6.0 0.00 0.00 0.00 18 1016.5
20260501215959 65 307 2.0 6.0 0.00 0.00 0.00 19 1016.6
20260501215857 65 76 2.0 6.0 0.00 0.00 0.00 19 1016.6
20260501215758 65 21 1.0 10.0 0.00 0.00 0.00 22 1016.6
20260501215657 65 319 3.0 10.0 0.00 0.00 0.00 21 1016.6
20260501215557 65 271 4.0 10.0 0.00 0.00 0.00 21 1016.6
20260501215457 65 280 3.0 10.0 0.00 0.00 0.00 20 1016.6
20260501215357 65 328 2.0 10.0 0.00 0.00 0.00 19 1016.6
20260501215257 65 221 1.0 10.0 0.00 0.00 0.00 20 1016.7
20260501215156 65 211 4.0 10.0 0.00 0.00 0.00 18 1016.7
20260501215056 65 311 3.0 10.0 0.00 0.00 0.00 18 1016.6
20260501214957 65 311 2.0 10.0 0.00 0.00 0.00 20 1016.7
20260501214756 65 344 3.0 9.0 0.00 0.00 0.00 20 1016.7
20260501214657 65 309 2.0 9.0 0.00 0.00 0.00 21 1016.6
20260501214556 65 296 3.0 9.0 0.00 0.00 0.00 19 1016.6
20260501214457 65 282 1.0 9.0 0.00 0.00 0.00 19 1016.7
20260501214356 65 261 9.0 9.0 0.00 0.00 0.00 20 1016.7
20260501214256 65 342 1.0 7.0 0.00 0.00 0.00 21 1016.7
20260501214157 65 336 1.0 7.0 0.00 0.00 0.00 20 1016.7
20260501213957 65 11 2.0 7.0 0.00 0.00 0.00 19 1016.7
20260501213858 65 13 2.0 7.0 0.00 0.00 0.00 20 1016.7
20260501213757 65 259 7.0 7.0 0.00 0.00 0.00 20 1016.8
20260501213657 65 317 1.0 7.0 0.00 0.00 0.00 20 1016.8
20260501213556 65 235 1.0 7.0 0.00 0.00 0.00 20 1016.8
20260501213357 65 284 6.0 7.0 0.00 0.00 0.00 19 1016.8
20260501213257 65 267 2.0 7.0 0.00 0.00 0.00 19 1016.8
20260501213158 65 257 4.0 7.0 0.00 0.00 0.00 20 1016.9
20260501213057 65 301 3.0 7.0 0.00 0.00 0.00 19 1016.8
20260501212958 65 290 1.0 7.0 0.00 0.00 0.00 18 1016.8
20260501212857 65 325 2.0 7.0 0.00 0.00 0.00 18 1016.8
20260501212657 65 340 4.0 6.0 0.00 0.00 0.00 19 1016.8
20260501212558 65 292 3.0 6.0 0.00 0.00 0.00 19 1016.8
20260501212458 65 355 2.0 7.0 0.00 0.00 0.00 19 1016.8
20260501212356 65 293 3.0 7.0 0.00 0.00 0.00 20 1016.8
20260501212157 65 331 0.0 7.0 0.00 0.00 0.00 20 1016.9
20260501212057 65 341 2.0 7.0 0.00 0.00 0.00 20 1016.9
20260501211959 65 273 3.0 7.0 0.00 0.00 0.00 24 1016.8
20260501211857 65 327 3.0 7.0 0.00 0.00 0.00 24 1016.9
20260501211757 64 334 3.0 7.0 0.00 0.00 0.00 20 1016.9
20260501211657 65 309 2.0 7.0 0.00 0.00 0.00 20 1016.9
20260501211557 65 271 2.0 6.0 0.00 0.00 0.00 18 1016.9
20260501211457 65 315 1.0 6.0 0.00 0.00 0.00 17 1016.9
20260501211357 65 300 2.0 6.0 0.00 0.00 0.00 17 1016.9
20260501211257 65 302 5.0 6.0 0.00 0.00 0.00 18 1016.9
20260501210856 65 338 2.0 6.0 0.00 0.00 0.00 18 1016.9
20260501210757 65 325 2.0 6.0 0.00 0.00 0.00 19 1016.9
20260501210457 65 331 2.0 6.0 0.00 0.00 0.00 19 1016.8
20260501210356 65 330 4.0 6.0 0.00 0.00 0.00 18 1016.9
20260501210257 65 314 3.0 6.0 0.00 0.00 0.00 17 1016.9
20260501210158 65 321 3.0 6.0 0.00 0.00 0.00 20 1016.9
20260501205856 65 321 3.0 6.0 0.00 0.00 0.00 18 1016.8
20260501205756 65 316 2.0 6.0 0.00 0.00 0.00 17 1016.9
20260501205557 65 252 2.0 6.0 0.00 0.00 0.00 18 1016.9
20260501205357 65 355 3.0 6.0 0.00 0.00 0.00 18 1016.9
20260501205157 65 313 3.0 6.0 0.00 0.00 0.00 17 1016.9
20260501205057 65 313 1.0 6.0 0.00 0.00 0.00 18 1016.9
20260501204957 65 306 3.0 6.0 0.00 0.00 0.00 18 1016.9
20260501204857 65 310 2.0 7.0 0.00 0.00 0.00 18 1016.9
20260501204757 65 312 6.0 7.0 0.00 0.00 0.00 18 1016.9
20260501204657 65 341 1.0 7.0 0.00 0.00 0.00 18 1016.9
20260501204556 65 251 2.0 7.0 0.00 0.00 0.00 17 1016.8
20260501204457 65 336 5.0 7.0 0.00 0.00 0.00 18 1016.9
20260501204356 65 319 3.0 7.0 0.00 0.00 0.00 18 1016.9
20260501204257 66 309 3.0 7.0 0.00 0.00 0.00 19 1016.8
20260501203957 66 248 4.0 7.0 0.00 0.00 0.00 19 1016.9
20260501203857 66 267 6.0 7.0 0.00 0.00 0.00 18 1016.9
20260501203757 66 271 2.0 7.0 0.00 0.00 0.00 18 1016.9
20260501203657 66 247 4.0 7.0 0.00 0.00 0.00 18 1016.9
20260501203557 66 273 2.0 7.0 0.00 0.00 0.00 17 1016.9
20260501203457 66 275 4.0 7.0 0.00 0.00 0.00 17 1016.9
20260501203357 66 252 7.0 7.0 0.00 0.00 0.00 16 1016.8
20260501203057 67 13 2.0 8.0 0.00 0.00 0.00 20 1016.8
20260501202957 67 350 1.0 8.0 0.00 0.00 0.00 16 1016.8
20260501202857 66 327 2.0 8.0 0.00 0.00 0.00 18 1016.8
20260501202758 67 323 3.0 8.0 0.00 0.00 0.00 18 1016.8
20260501202657 67 274 2.0 8.0 0.00 0.00 0.00 21 1016.9
20260501202556 67 330 1.0 8.0 0.00 0.00 0.00 17 1016.9
20260501202457 67 310 4.0 8.0 0.00 0.00 0.00 18 1016.9
20260501202356 67 302 3.0 8.0 0.00 0.00 0.00 18 1016.8
20260501202256 67 284 1.0 7.0 0.00 0.00 0.00 19 1016.9
20260501202057 67 344 3.0 8.0 0.00 0.00 0.00 18 1016.9
20260501201957 67 347 0.0 8.0 0.00 0.00 0.00 21 1016.9
20260501201756 67 336 1.0 9.0 0.00 0.00 0.00 19 1016.9
20260501201556 67 329 2.0 9.0 0.00 0.00 0.00 18 1016.8
20260501201457 67 314 2.0 9.0 0.00 0.00 0.00 18 1016.8
20260501201256 67 336 2.0 9.0 0.00 0.00 0.00 18 1016.8
20260501201157 67 5 1.0 9.0 0.00 0.00 0.00 20 1016.8
20260501201058 66 355 3.0 9.0 0.00 0.00 0.00 21 1016.8
20260501200958 66 323 4.0 9.0 0.00 0.00 0.00 20 1016.8
20260501200857 66 294 5.0 9.0 0.00 0.00 0.00 18 1016.8
20260501200757 66 338 0.0 7.0 0.00 0.00 0.00 18 1016.8
20260501200657 67 331 3.0 7.0 0.00 0.00 0.00 18 1016.9
20260501200457 67 316 2.0 7.0 0.00 0.00 0.00 17 1016.9
20260501200356 67 329 3.0 7.0 0.00 0.00 0.00 15 1016.9
20260501200257 67 337 2.0 7.0 0.00 0.00 0.00 18 1016.9
20260501200157 67 351 3.0 7.0 0.00 0.00 0.00 22 1016.9
20260501200058 67 342 4.0 7.0 0.00 0.00 0.00 22 1016.9
20260501200000 67 313 2.0 7.0 0.00 0.00 0.00 20 1016.9
20260501195857 67 270 5.0 6.0 0.00 0.00 0.00 19 1016.9
20260501195756 67 259 3.0 6.0 0.00 0.00 0.00 17 1016.9
20260501195657 67 340 1.0 6.0 0.00 0.00 0.00 16 1016.9
20260501195556 68 334 4.0 6.0 0.00 0.00 0.00 17 1016.9
20260501195458 68 308 5.0 6.0 0.00 0.00 0.00 16 1016.9
20260501195357 67 331 2.0 5.0 0.00 0.00 0.00 19 1016.8
20260501195256 67 24 2.0 5.0 0.00 0.00 0.00 16 1016.9
20260501195157 67 336 0.0 5.0 0.00 0.00 0.00 17 1016.9
20260501195056 67 324 1.0 5.0 0.00 0.00 0.00 17 1016.9
20260501194957 67 257 5.0 5.0 0.00 0.00 0.00 17 1016.9
20260501194856 67 51 1.0 4.0 0.00 0.00 0.00 15 1016.9
20260501194757 67 17 0.0 4.0 0.00 0.00 0.00 18 1016.9
20260501194711 66 24 1.0 4.0 0.00 0.00 0.00 17 1016.9
20260501194557 66 350 2.0 5.0 0.00 0.00 0.00 15 1016.9
20260501194356 66 195 1.0 10.0 0.00 0.00 0.00 17 1017.0
20260501194257 66 34 1.0 10.0 0.00 0.00 0.00 18 1017.0
20260501194156 66 17 3.0 10.0 0.00 0.00 0.00 20 1017.0
20260501194056 66 48 2.0 10.0 0.00 0.00 0.00 23 1017.0
20260501193958 66 13 1.0 10.0 0.00 0.00 0.00 20 1017.0
20260501193857 66 355 2.0 10.0 0.00 0.00 0.00 21 1017.1
20260501193756 66 360 2.0 11.0 0.00 0.00 0.00 17 1017.0
20260501193556 65 121 8.0 11.0 0.00 0.00 0.00 15 1017.0
20260501193457 65 22 2.0 11.0 0.00 0.00 0.00 17 1017.0
20260501193356 65 16 4.0 11.0 0.00 0.00 0.00 12 1017.0
20260501193257 65 161 2.0 11.0 0.00 0.00 0.00 12 1017.0
20260501193157 65 130 2.0 11.0 0.00 0.00 0.00 14 1017.0
20260501193057 65 228 3.0 11.0 0.00 0.00 0.00 12 1017.0
20260501192957 65 165 3.0 11.0 0.00 0.00 0.00 13 1017.2
20260501192856 65 85 1.0 8.0 0.00 0.00 0.00 15 1017.1
20260501192657 65 137 4.0 8.0 0.00 0.00 0.00 12 1017.1
20260501192356 65 350 1.0 8.0 0.00 0.00 0.00 13 1017.1
20260501192256 65 217 1.0 8.0 0.00 0.00 0.00 14 1017.1
20260501192157 65 61 0.0 8.0 0.00 0.00 0.00 13 1017.1
20260501192057 65 57 4.0 8.0 0.00 0.00 0.00 13 1017.3
20260501191957 65 102 3.0 8.0 0.00 0.00 0.00 14 1017.2
20260501191857 65 115 3.0 8.0 0.00 0.00 0.00 15 1017.2
20260501191758 65 311 2.0 8.0 0.00 0.00 0.00 13 1017.1
20260501191657 65 327 2.0 8.0 0.00 0.00 0.00 14 1017.2
20260501191556 65 355 2.0 8.0 0.00 0.00 0.00 12 1017.3
20260501191459 65 25 3.0 8.0 0.00 0.00 0.00 13 1017.4
20260501191357 65 103 2.0 8.0 0.00 0.00 0.00 15 1017.4
20260501191257 65 124 5.0 8.0 0.00 0.00 0.00 16 1017.4
20260501191157 65 144 7.0 8.0 0.00 0.00 0.00 12 1017.4
20260501191058 65 184 4.0 8.0 0.00 0.00 0.00 13 1017.3
20260501190857 65 217 3.0 8.0 0.00 0.00 0.00 12 1017.4
20260501190756 65 190 8.0 8.0 0.00 0.00 0.00 12 1017.4
20260501190657 65 253 5.0 8.0 0.00 0.00 0.00 11 1017.4
20260501190557 65 213 3.0 8.0 0.00 0.00 0.00 10 1017.4
20260501190356 66 355 5.0 12.0 0.00 0.00 0.00 17 1017.5
20260501190257 66 115 4.0 12.0 0.00 0.00 0.00 17 1017.4
20260501190157 65 127 1.0 12.0 0.00 0.00 0.00 15 1017.4
20260501190057 65 338 1.0 12.0 0.00 0.00 0.00 15 1017.4
20260501190001 65 325 1.0 12.0 0.00 0.00 0.00 17 1017.4
20260501185857 65 315 1.0 12.0 0.00 0.00 0.00 13 1017.4
20260501185656 65 163 1.0 12.0 0.00 0.00 0.00 15 1017.5
20260501185556 65 81 5.0 12.0 0.00 0.00 0.00 16 1017.5
20260501185457 65 85 9.0 9.0 0.00 0.00 0.00 14 1017.5
20260501185356 65 136 4.0 6.0 0.00 0.00 0.00 17 1017.5
20260501185256 65 161 1.0 6.0 0.00 0.00 0.00 14 1017.5
20260501185157 65 304 0.0 6.0 0.00 0.00 0.00 14 1017.4
20260501185057 65 310 1.0 6.0 0.00 0.00 0.00 15 1017.4
20260501184756 66 38 4.0 7.0 0.00 0.00 0.00 20 1017.6
20260501184657 66 43 2.0 4.0 0.00 0.00 0.00 20 1017.6
20260501184557 65 319 1.0 4.0 0.00 0.00 0.00 20 1017.6
20260501184457 65 319 1.0 4.0 0.00 0.00 0.00 17 1017.6
20260501184356 65 241 2.0 4.0 0.00 0.00 0.00 17 1017.6
20260501184257 65 329 0.0 10.0 0.00 0.00 0.00 13 1017.6
20260501184157 65 98 1.0 10.0 0.00 0.00 0.00 12 1017.6
20260501183858 65 350 3.0 10.0 0.00 0.00 0.00 14 1017.7
20260501183556 64 31 2.0 10.0 0.00 0.00 0.00 13 1017.8
20260501183356 64 24 4.0 10.0 0.00 0.00 0.00 16 1017.8
20260501183057 64 160 3.0 7.0 0.00 0.00 0.00 15 1017.7
20260501182856 63 163 1.0 7.0 0.00 0.00 0.00 15 1017.7
20260501182756 63 77 0.0 7.0 0.00 0.00 0.00 17 1017.8
20260501182657 63 60 8.0 8.0 0.00 0.00 0.00 13 1017.7
20260501182556 63 360 0.0 6.0 0.00 0.00 0.00 13 1017.8
20260501182357 63 22 3.0 5.0 0.00 0.00 0.00 13 1017.7
20260501182257 63 219 1.0 5.0 0.00 0.00 0.00 14 1017.8
20260501182158 63 5 0.0 4.0 0.00 0.00 0.00 17 1017.8
20260501182056 63 5 2.0 4.0 0.00 0.00 0.00 17 1017.8
20260501181857 63 34 1.0 4.0 0.00 0.00 0.00 16 1017.8
20260501181757 62 84 1.0 4.0 0.00 0.00 0.00 19 1017.9
20260501181657 62 96 2.0 5.0 0.00 0.00 0.00 17 1017.8
20260501181557 62 296 0.0 5.0 0.00 0.00 0.00 15 1017.9
20260501181458 62 236 2.0 5.0 0.00 0.00 0.00 22 1017.9
20260501181359 62 198 2.0 6.0 0.00 0.00 0.00 19 1017.8
20260501181256 62 246 0.0 6.0 0.00 0.00 0.00 19 1017.9
20260501181058 62 136 3.0 7.0 0.00 0.00 0.00 17 1017.9
20260501180957 62 253 3.0 7.0 0.00 0.00 0.00 18 1017.9
20260501180856 62 171 3.0 7.0 0.00 0.00 0.00 16 1017.8
20260501180658 62 107 0.0 7.0 0.00 0.00 0.00 16 1017.9
20260501180556 62 182 1.0 7.0 0.00 0.00 0.00 18 1017.9
20260501180457 62 193 6.0 7.0 0.00 0.00 0.00 16 1017.9
20260501180357 62 200 4.0 7.0 0.00 0.00 0.00 17 1017.9
20260501180257 61 203 2.0 6.0 0.00 0.00 0.00 16 1018.0
20260501180156 61 217 3.0 10.0 0.00 0.00 0.00 17 1018.0
20260501180056 61 147 2.0 13.0 0.00 0.00 0.00 17 1017.9
20260501180000 61 317 2.0 13.0 0.00 0.00 0.00 17 1017.9
20260501175856 61 258 3.0 13.0 0.00 0.00 0.00 15 1017.9
20260501175757 61 37 5.0 13.0 0.00 0.00 0.00 15 1018.0
20260501175556 61 148 3.0 13.0 0.00 0.00 0.00 17 1018.0
20260501175457 61 11 2.0 13.0 0.00 0.00 0.00 17 1018.0
20260501175357 61 172 1.0 14.0 0.00 0.00 0.00 15 1018.0
20260501175157 62 92 5.0 14.0 0.00 0.00 0.00 14 1018.1
20260501175057 62 138 1.0 14.0 0.00 0.00 0.00 20 1018.1
20260501174956 61 70 1.0 14.0 0.00 0.00 0.00 17 1018.0
20260501174857 61 24 1.0 14.0 0.00 0.00 0.00 17 1018.0
20260501174756 61 14 3.0 14.0 0.00 0.00 0.00 16 1018.1
20260501174657 61 39 6.0 14.0 0.00 0.00 0.00 17 1018.0
20260501174458 61 44 7.0 13.0 0.00 0.00 0.00 16 1018.1
20260501174356 61 84 7.0 13.0 0.00 0.00 0.00 15 1018.1
20260501174257 61 63 3.0 13.0 0.00 0.00 0.00 16 1018.1
20260501174158 61 60 9.0 13.0 0.00 0.00 0.00 15 1018.1
20260501174057 61 91 6.0 13.0 0.00 0.00 0.00 15 1018.1
20260501173957 61 49 1.0 13.0 0.00 0.00 0.00 17 1018.2
20260501173856 61 66 5.0 13.0 0.00 0.00 0.00 17 1018.2
20260501173757 61 93 5.0 13.0 0.00 0.00 0.00 16 1018.2
20260501173656 61 58 7.0 13.0 0.00 0.00 0.00 17 1018.1
20260501173457 61 74 11.0 13.0 0.00 0.00 0.00 16 1018.2
20260501173356 61 44 5.0 11.0 0.00 0.00 0.00 16 1018.1
20260501173257 61 97 6.0 11.0 0.00 0.00 0.00 15 1018.1
20260501173156 60 156 2.0 11.0 0.00 0.00 0.00 16 1018.1
20260501172957 60 69 4.0 11.0 0.00 0.00 0.00 17 1018.0
20260501172757 60 123 2.0 11.0 0.00 0.00 0.00 16 1018.1
20260501172456 60 31 2.0 10.0 0.00 0.00 0.00 15 1018.1
20260501172356 60 41 4.0 10.0 0.00 0.00 0.00 16 1018.2
20260501172257 60 54 2.0 9.0 0.00 0.00 0.00 16 1018.1
20260501172156 60 334 4.0 9.0 0.00 0.00 0.00 19 1018.3
20260501172056 60 20 3.0 9.0 0.00 0.00 0.00 18 1018.2
20260501171958 60 44 7.0 9.0 0.00 0.00 0.00 17 1018.2
20260501171857 60 57 2.0 16.0 0.00 0.00 0.00 18 1018.1
20260501171756 60 29 1.0 16.0 0.00 0.00 0.00 18 1018.1
20260501171658 60 16 1.0 16.0 0.00 0.00 0.00 15 1018.1
20260501171557 60 5 2.0 16.0 0.00 0.00 0.00 17 1018.1
20260501171457 60 24 4.0 16.0 0.00 0.00 0.00 18 1018.3
20260501171357 60 84 1.0 16.0 0.00 0.00 0.00 18 1018.3
20260501171258 60 22 6.0 16.0 0.00 0.00 0.00 16 1018.2
20260501171157 60 85 3.0 16.0 0.00 0.00 0.00 16 1018.3
20260501170959 60 40 7.0 14.0 0.00 0.00 0.00 16 1018.2
20260501170756 59 69 5.0 13.0 0.00 0.00 0.00 18 1018.3
20260501170656 59 21 2.0 13.0 0.00 0.00 0.00 18 1018.2
20260501170558 59 114 0.0 13.0 0.00 0.00 0.00 17 1018.1
20260501170457 59 360 3.0 13.0 0.00 0.00 0.00 19 1018.2
20260501170257 59 80 7.0 13.0 0.00 0.00 0.00 21 1018.2
20260501170157 59 115 1.0 13.0 0.00 0.00 0.00 20 1018.2
20260501165959 59 22 2.0 13.0 0.00 0.00 0.00 18 1018.2
20260501165857 59 44 5.0 13.0 0.00 0.00 0.00 18 1018.3
20260501165756 59 59 5.0 12.0 0.00 0.00 0.00 19 1018.2
20260501165557 59 44 7.0 14.0 0.00 0.00 0.00 19 1018.3
20260501165457 59 24 5.0 14.0 0.00 0.00 0.00 20 1018.3
20260501165356 59 51 7.0 11.0 0.00 0.00 0.00 20 1018.2
20260501165257 58 292 2.0 12.0 0.00 0.00 0.00 21 1018.2
20260501164957 58 5 3.0 15.0 0.00 0.00 0.00 19 1018.2
20260501164856 58 23 7.0 15.0 0.00 0.00 0.00 20 1018.3
20260501164756 58 105 4.0 15.0 0.00 0.00 0.00 19 1018.3
20260501164656 58 155 8.0 15.0 0.00 0.00 0.00 18 1018.3
20260501164457 58 115 8.0 15.0 0.00 0.00 0.00 19 1018.3
20260501164356 58 79 8.0 15.0 0.00 0.00 0.00 20 1018.3
20260501164257 58 105 2.0 15.0 0.00 0.00 0.00 19 1018.4
20260501164157 58 69 11.0 15.0 0.00 0.00 0.00 20 1018.3
20260501164057 58 65 8.0 14.0 0.00 0.00 0.00 18 1018.3
20260501163958 59 42 13.0 14.0 0.00 0.00 0.00 19 1018.4
20260501163857 59 38 3.0 14.0 0.00 0.00 0.00 19 1018.5
20260501163757 59 76 11.0 14.0 0.00 0.00 0.00 19 1018.5
20260501163657 59 51 5.0 14.0 0.00 0.00 0.00 20 1018.4
20260501163557 58 73 3.0 14.0 0.00 0.00 0.00 20 1018.4
20260501163457 58 96 7.0 16.0 0.00 0.00 0.00 20 1018.4
20260501163357 58 71 9.0 16.0 0.00 0.00 0.00 19 1018.4
20260501163256 58 17 2.0 16.0 0.00 0.00 0.00 20 1018.4
20260501163157 58 139 4.0 16.0 0.00 0.00 0.00 20 1018.4
20260501163058 58 76 7.0 16.0 0.00 0.00 0.00 20 1018.4
20260501162957 58 139 4.0 16.0 0.00 0.00 0.00 22 1018.4
20260501162857 58 29 2.0 16.0 0.00 0.00 0.00 21 1018.5
20260501162756 58 49 3.0 16.0 0.00 0.00 0.00 21 1018.4
20260501162657 58 55 5.0 16.0 0.00 0.00 0.00 20 1018.4
20260501162556 58 29 12.0 16.0 0.00 0.00 0.00 19 1018.3
20260501162457 58 222 1.0 12.0 0.00 0.00 0.00 20 1018.4
20260501162356 58 33 1.0 12.0 0.00 0.00 0.00 21 1018.4
20260501162256 58 40 3.0 12.0 0.00 0.00 0.00 20 1018.4
20260501162156 58 79 3.0 12.0 0.00 0.00 0.00 20 1018.4
20260501161957 58 82 1.0 12.0 0.00 0.00 0.00 20 1018.4
20260501161856 58 71 7.0 14.0 0.00 0.00 0.00 22 1018.3
20260501161556 58 155 3.0 14.0 0.00 0.00 0.00 23 1018.3
20260501161457 57 34 2.0 14.0 0.00 0.00 0.00 24 1018.3
20260501161358 57 124 6.0 14.0 0.00 0.00 0.00 22 1018.3
20260501161258 57 67 3.0 14.0 0.00 0.00 0.00 21 1018.2
20260501161157 57 92 3.0 14.0 0.00 0.00 0.00 24 1018.3
20260501161057 57 117 4.0 14.0 0.00 0.00 0.00 21 1018.2
20260501160958 57 84 2.0 14.0 0.00 0.00 0.00 22 1018.2
20260501160856 57 180 3.0 14.0 0.00 0.00 0.00 20 1018.3
20260501160656 57 147 3.0 14.0 0.00 0.00 0.00 20 1018.3
20260501160600 57 43 5.0 14.0 0.00 0.00 0.00 20 1018.2
20260501160458 57 81 3.0 14.0 0.00 0.00 0.00 20 1018.2
20260501160356 57 360 3.0 14.0 0.00 0.00 0.00 21 1018.2
20260501160056 57 133 1.0 14.0 0.00 0.00 0.00 21 1018.3
20260501160000 56 94 3.0 14.0 0.00 0.00 0.00 20 1018.2
20260501155857 56 45 4.0 14.0 0.00 0.00 0.00 21 1018.2
20260501155756 56 15 6.0 15.0 0.00 0.00 0.00 21 1018.2
20260501155657 56 67 12.0 15.0 0.00 0.00 0.00 21 1018.3
20260501155557 56 52 6.0 15.0 0.00 0.00 0.00 21 1018.3
20260501155356 56 65 8.0 15.0 0.00 0.00 0.00 20 1018.3
20260501155156 56 109 13.0 15.0 0.00 0.00 0.00 22 1018.2
20260501155056 56 46 7.0 15.0 0.00 0.00 0.00 20 1018.2
20260501154957 56 57 4.0 15.0 0.00 0.00 0.00 21 1018.3
20260501154858 56 15 7.0 13.0 0.00 0.00 0.00 21 1018.3
20260501154758 56 62 4.0 13.0 0.00 0.00 0.00 23 1018.2
20260501154657 56 96 3.0 13.0 0.00 0.00 0.00 22 1018.2
20260501154556 56 74 3.0 13.0 0.00 0.00 0.00 22 1018.2
20260501154458 56 41 6.0 14.0 0.00 0.00 0.00 21 1018.2
20260501154356 55 67 8.0 14.0 0.00 0.00 0.00 20 1018.2
20260501154256 55 49 3.0 14.0 0.00 0.00 0.00 20 1018.2
20260501154156 55 57 4.0 14.0 0.00 0.00 0.00 21 1018.3
20260501154057 55 40 6.0 14.0 0.00 0.00 0.00 20 1018.2
20260501153857 55 67 4.0 14.0 0.00 0.00 0.00 22 1018.2
20260501153657 55 36 2.0 14.0 0.00 0.00 0.00 21 1018.3
20260501153556 55 84 6.0 15.0 0.00 0.00 0.00 22 1018.2
20260501153457 55 70 13.0 15.0 0.00 0.00 0.00 22 1018.2
20260501153356 55 10 3.0 16.0 0.00 0.00 0.00 22 1018.3
20260501153256 55 105 8.0 16.0 0.00 0.00 0.00 22 1018.2
20260501153057 55 83 6.0 16.0 0.00 0.00 0.00 21 1018.2
20260501152957 55 63 10.0 16.0 0.00 0.00 0.00 23 1018.2
20260501152856 55 21 8.0 16.0 0.00 0.00 0.00 24 1018.2